Year,Month,Day,Hour,Minute,Value (Times are PST for temperature in C)
2007,06,24,00,00,9.30
2007,06,24,00,01,9.30
2007,06,24,00,02,9.30
2007,06,24,00,03,9.30
2007,06,24,00,04,9.30
2007,06,24,06,17,8.60
2007,06,24,06,19,8.70
2007,06,24,06,20,8.70
2007,06,24,06,21,8.70
2007,06,24,06,22,8.70
2007,06,24,06,23,8.70
2007,06,24,06,24,8.70
2007,06,24,06,25,8.70
2007,06,24,06,26,8.80
2007,06,24,06,27,8.80
2007,06,24,06,28,8.80
2007,06,24,06,29,8.80
2007,06,24,06,30,8.80
2007,06,24,06,31,8.80
2007,06,24,06,32,8.80
2007,06,24,06,33,8.80
2007,06,24,06,34,8.80
2007,06,24,06,35,8.90
2007,06,24,06,36,8.90
2007,06,24,06,37,8.90
2007,06,24,06,38,8.90
2007,06,24,06,39,8.90
2007,06,24,06,40,8.90
2007,06,24,06,41,8.90
2007,06,24,06,42,8.90
2007,06,24,06,43,8.90
2007,06,24,06,44,8.90
2007,06,24,06,45,8.90
2007,06,24,06,46,8.90
2007,06,24,06,47,8.90
2007,06,24,06,48,8.90
2007,06,24,06,49,9.00
2007,06,24,06,50,9.00
2007,06,24,06,51,9.00
2007,06,24,06,52,9.00
2007,06,24,06,53,9.10
2007,06,24,06,54,9.10
2007,06,24,06,55,9.10
2007,06,24,06,56,9.10
2007,06,24,06,57,9.10
2007,06,24,06,58,9.10
2007,06,24,06,59,9.20
2007,06,24,07,00,9.20
2007,06,24,07,01,9.20
2007,06,24,07,02,9.20
2007,06,24,07,03,9.20
2007,06,24,07,04,9.20
2007,06,24,07,05,9.30
2007,06,24,07,06,9.30
2007,06,24,07,07,9.30
2007,06,24,07,08,9.30
2007,06,24,07,09,9.30
2007,06,24,07,10,9.30
2007,06,24,07,11,9.30
2007,06,24,07,12,9.30
2007,06,24,07,13,9.30
2007,06,24,07,14,9.30
2007,06,24,07,15,9.30
2007,06,24,07,16,9.30
2007,06,24,07,17,9.40
2007,06,24,07,18,9.40
2007,06,24,07,19,9.40
2007,06,24,07,20,9.40
2007,06,24,07,21,9.40
2007,06,24,07,22,9.40
2007,06,24,07,23,9.40
2007,06,24,07,24,9.40
2007,06,24,07,25,9.50
2007,06,24,07,26,9.50
2007,06,24,07,27,9.60
2007,06,24,07,28,9.60
2007,06,24,07,29,9.60
2007,06,24,07,30,9.70
2007,06,24,07,31,9.70
2007,06,24,07,32,9.70
2007,06,24,07,33,9.70
2007,06,24,07,34,9.70
2007,06,24,07,35,9.80
2007,06,24,07,36,9.80
2007,06,24,07,37,9.80
2007,06,24,07,38,9.90
2007,06,24,07,39,9.90
2007,06,24,07,40,10.00
2007,06,24,07,41,10.10
2007,06,24,07,42,10.10
2007,06,24,07,43,10.20
2007,06,24,07,44,10.20
2007,06,24,07,45,10.30
2007,06,24,07,46,10.30
2007,06,24,07,47,10.30
2007,06,24,07,48,10.40
2007,06,24,07,49,10.40
2007,06,24,07,50,10.40
2007,06,24,07,51,10.50
2007,06,24,07,52,10.60
2007,06,24,07,53,10.60
2007,06,24,07,54,10.60
2007,06,24,07,55,10.70
2007,06,24,07,56,10.80
2007,06,24,07,57,10.80
2007,06,24,07,58,10.90
2007,06,24,07,59,10.90
2007,06,24,08,00,10.90
2007,06,24,08,01,11.00
2007,06,24,08,02,11.00
2007,06,24,08,03,11.10
2007,06,24,08,04,11.10
2007,06,24,08,05,11.20
2007,06,24,08,06,11.30
2007,06,24,08,07,11.30
2007,06,24,08,08,11.30
2007,06,24,08,09,11.30
2007,06,24,08,10,11.30
2007,06,24,08,11,11.30
2007,06,24,08,12,11.40
2007,06,24,08,13,11.40
2007,06,24,08,14,11.30
2007,06,24,08,15,11.30
2007,06,24,08,16,11.30
2007,06,24,08,17,11.30
2007,06,24,08,18,11.30
2007,06,24,08,19,11.30
2007,06,24,08,20,11.30
2007,06,24,08,21,11.40
2007,06,24,08,22,11.40
2007,06,24,08,23,11.50
2007,06,24,08,24,11.50
2007,06,24,08,25,11.60
2007,06,24,08,26,11.70
2007,06,24,08,27,11.70
2007,06,24,08,28,11.80
2007,06,24,08,29,11.80
2007,06,24,08,30,11.90
2007,06,24,08,31,12.00
2007,06,24,08,32,12.10
2007,06,24,08,33,12.20
2007,06,24,08,34,12.20
2007,06,24,08,35,12.30
2007,06,24,08,36,12.30
2007,06,24,08,37,12.40
2007,06,24,08,38,12.40
2007,06,24,08,39,12.40
2007,06,24,08,40,12.50
2007,06,24,08,41,12.40
2007,06,24,08,42,12.40
2007,06,24,08,43,12.40
2007,06,24,08,44,12.40
2007,06,24,08,45,12.50
2007,06,24,08,46,12.50
2007,06,24,08,47,12.60
2007,06,24,08,48,12.60
2007,06,24,08,49,12.70
2007,06,24,08,50,12.70
2007,06,24,08,51,12.80
2007,06,24,08,52,12.90
2007,06,24,08,53,12.90
2007,06,24,08,54,13.00
2007,06,24,08,55,13.10
2007,06,24,08,56,13.20
2007,06,24,08,57,13.20
2007,06,24,08,58,13.20
2007,06,24,08,59,13.20
2007,06,24,09,00,13.20
2007,06,24,09,01,13.10
2007,06,24,09,02,13.10
2007,06,24,09,03,13.10
2007,06,24,09,04,13.10
2007,06,24,09,05,13.20
2007,06,24,09,06,13.20
2007,06,24,09,07,13.30
2007,06,24,09,08,13.30
2007,06,24,09,09,13.30
2007,06,24,09,10,13.30
2007,06,24,09,11,13.20
2007,06,24,09,12,13.20
2007,06,24,09,13,13.10
2007,06,24,09,14,13.00
2007,06,24,09,15,13.00
2007,06,24,09,16,12.90
2007,06,24,09,17,12.80
2007,06,24,09,18,12.70
2007,06,24,09,19,12.70
2007,06,24,09,20,12.70
2007,06,24,09,21,12.70
2007,06,24,09,22,12.70
2007,06,24,09,23,12.80
2007,06,24,09,24,12.90
2007,06,24,09,25,13.00
2007,06,24,09,26,13.10
2007,06,24,09,27,13.20
2007,06,24,09,28,13.30
2007,06,24,09,29,13.50
2007,06,24,09,30,13.50
2007,06,24,09,31,13.60
2007,06,24,09,32,13.60
2007,06,24,09,33,13.60
2007,06,24,09,34,13.70
2007,06,24,09,35,13.80
2007,06,24,09,36,13.80
2007,06,24,09,37,13.80
2007,06,24,09,38,13.90
2007,06,24,09,39,13.90
2007,06,24,09,40,13.90
2007,06,24,09,41,14.00
2007,06,24,09,42,14.00
2007,06,24,09,43,14.10
2007,06,24,09,44,14.00
2007,06,24,09,45,14.00
2007,06,24,09,46,13.90
2007,06,24,09,47,13.90
2007,06,24,09,48,13.90
2007,06,24,09,49,13.90
2007,06,24,09,50,13.80
2007,06,24,09,51,13.70
2007,06,24,09,52,13.60
2007,06,24,09,53,13.60
2007,06,24,09,54,13.50
2007,06,24,09,55,13.40
2007,06,24,09,56,13.20
2007,06,24,09,57,13.10
2007,06,24,09,58,12.90
2007,06,24,09,59,12.70
2007,06,24,10,00,12.50
2007,06,24,10,01,12.40
2007,06,24,10,02,12.20
2007,06,24,10,03,12.10
2007,06,24,10,04,11.90
2007,06,24,10,05,11.80
2007,06,24,10,06,11.70
2007,06,24,10,07,11.60
2007,06,24,10,08,11.50
2007,06,24,10,09,11.40
2007,06,24,10,10,11.20
2007,06,24,10,11,11.10
2007,06,24,10,12,10.90
2007,06,24,10,13,10.80
2007,06,24,10,14,10.70
2007,06,24,10,15,10.60
2007,06,24,10,16,10.50
2007,06,24,10,17,10.40
2007,06,24,10,18,10.30
2007,06,24,10,19,10.30
2007,06,24,10,20,10.20
2007,06,24,10,21,10.20
2007,06,24,10,22,10.10
2007,06,24,10,23,10.10
2007,06,24,10,24,10.10
2007,06,24,10,25,10.10
2007,06,24,10,26,10.10
2007,06,24,10,27,10.10
2007,06,24,10,28,10.10
2007,06,24,10,29,10.10
2007,06,24,10,30,10.20
2007,06,24,10,31,10.20
2007,06,24,10,32,10.20
2007,06,24,10,33,10.30
2007,06,24,10,34,10.40
2007,06,24,10,35,10.40
2007,06,24,10,36,10.50
2007,06,24,10,37,10.60
2007,06,24,10,38,10.70
2007,06,24,10,39,10.90
2007,06,24,10,40,11.00
2007,06,24,10,41,11.20
2007,06,24,10,42,11.30
2007,06,24,10,43,11.40
2007,06,24,10,44,11.50
2007,06,24,10,45,11.60
2007,06,24,10,46,11.60
2007,06,24,10,47,11.60
2007,06,24,10,48,11.60
2007,06,24,10,49,11.60
2007,06,24,10,50,11.60
2007,06,24,10,51,11.50
2007,06,24,10,52,11.50
2007,06,24,10,53,11.50
2007,06,24,10,54,11.50
2007,06,24,10,55,11.40
2007,06,24,10,56,11.40
2007,06,24,10,57,11.40
2007,06,24,10,58,11.40
2007,06,24,10,59,11.40
2007,06,24,11,00,11.40
2007,06,24,11,01,11.50
2007,06,24,11,02,11.50
2007,06,24,11,03,11.60
2007,06,24,11,04,11.60
2007,06,24,11,05,11.70
2007,06,24,11,06,11.70
2007,06,24,11,07,11.70
2007,06,24,11,08,11.70
2007,06,24,11,09,11.80
2007,06,24,11,10,11.80
2007,06,24,11,11,11.90
2007,06,24,11,12,11.90
2007,06,24,11,13,12.00
2007,06,24,11,14,12.00
2007,06,24,11,15,12.00
2007,06,24,11,16,12.00
2007,06,24,11,17,12.10
2007,06,24,11,18,12.10
2007,06,24,11,19,12.20
2007,06,24,11,20,12.20
2007,06,24,11,21,12.30
2007,06,24,11,22,12.40
2007,06,24,11,23,12.50
2007,06,24,11,24,12.60
2007,06,24,11,25,12.70
2007,06,24,11,26,12.80
2007,06,24,11,27,12.80
2007,06,24,11,28,12.90
2007,06,24,11,29,13.00
2007,06,24,11,30,13.10
2007,06,24,11,31,13.10
2007,06,24,11,32,13.20
2007,06,24,11,33,13.20
2007,06,24,11,34,13.20
2007,06,24,11,35,13.20
2007,06,24,11,36,13.30
2007,06,24,11,37,13.30
2007,06,24,11,38,13.20
2007,06,24,11,39,13.30
2007,06,24,11,40,13.30
2007,06,24,11,41,13.30
2007,06,24,11,42,13.30
2007,06,24,11,43,13.20
2007,06,24,11,44,13.20
2007,06,24,11,45,13.30
2007,06,24,11,46,13.20
2007,06,24,11,47,13.20
2007,06,24,11,48,13.20
2007,06,24,11,49,13.20
2007,06,24,11,50,13.20
2007,06,24,11,51,13.20
2007,06,24,11,52,13.20
2007,06,24,11,53,13.20
2007,06,24,11,54,13.20
2007,06,24,11,55,13.20
2007,06,24,11,56,13.20
2007,06,24,11,57,13.20
2007,06,24,11,58,13.30
2007,06,24,11,59,13.30
2007,06,24,12,00,13.30
2007,06,24,12,01,13.30
2007,06,24,12,02,13.40
2007,06,24,12,03,13.40
2007,06,24,12,04,13.40
2007,06,24,12,05,13.30
2007,06,24,12,06,13.30
2007,06,24,12,07,13.20
2007,06,24,12,08,13.20
2007,06,24,12,09,13.20
2007,06,24,12,10,13.20
2007,06,24,12,11,13.20
2007,06,24,12,12,13.30
2007,06,24,12,13,13.30
2007,06,24,12,14,13.20
2007,06,24,12,15,13.30
2007,06,24,12,16,13.30
2007,06,24,12,17,13.30
2007,06,24,12,18,13.40
2007,06,24,12,19,13.50
2007,06,24,12,20,13.60
2007,06,24,12,21,13.60
2007,06,24,12,22,13.70
2007,06,24,12,23,13.80
2007,06,24,12,24,13.90
2007,06,24,12,25,13.90
2007,06,24,12,26,13.90
2007,06,24,12,27,13.90
2007,06,24,12,28,14.00
2007,06,24,12,29,14.10
2007,06,24,12,30,14.20
2007,06,24,12,31,14.20
2007,06,24,12,32,14.20
2007,06,24,12,33,14.20
2007,06,24,12,34,14.20
2007,06,24,12,35,14.20
2007,06,24,12,36,14.20
2007,06,24,12,37,14.20
2007,06,24,12,38,14.10
2007,06,24,12,39,14.10
2007,06,24,12,40,14.10
2007,06,24,12,41,14.10
2007,06,24,12,42,14.10
2007,06,24,12,43,14.10
2007,06,24,12,44,14.10
2007,06,24,12,45,14.20
2007,06,24,12,46,14.20
2007,06,24,12,47,14.20
2007,06,24,12,48,14.20
2007,06,24,12,49,14.20
2007,06,24,12,50,14.20
2007,06,24,12,51,14.20
2007,06,24,12,52,14.20
2007,06,24,12,53,14.20
2007,06,24,12,54,14.20
2007,06,24,12,55,14.20
2007,06,24,12,56,14.20
2007,06,24,12,57,14.20
2007,06,24,12,58,14.20
2007,06,24,12,59,14.20
2007,06,24,13,00,14.20
2007,06,24,13,01,14.20
2007,06,24,13,02,14.20
2007,06,24,13,03,14.20
2007,06,24,13,04,14.20
2007,06,24,13,05,14.10
2007,06,24,13,06,14.00
2007,06,24,13,07,13.90
2007,06,24,13,08,13.90
2007,06,24,13,09,14.00
2007,06,24,13,10,14.00
2007,06,24,13,11,14.00
2007,06,24,13,12,13.90
2007,06,24,13,13,13.80
2007,06,24,13,14,13.80
2007,06,24,13,15,13.90
2007,06,24,13,16,13.80
2007,06,24,13,17,13.80
2007,06,24,13,18,13.90
2007,06,24,13,19,14.00
2007,06,24,13,20,14.00
2007,06,24,13,21,14.10
2007,06,24,13,22,14.20
2007,06,24,13,23,14.20
2007,06,24,13,24,14.20
2007,06,24,13,25,14.20
2007,06,24,13,26,14.30
2007,06,24,13,27,14.30
2007,06,24,13,28,14.20
2007,06,24,13,29,14.10
2007,06,24,13,30,14.10
2007,06,24,13,31,14.10
2007,06,24,13,32,14.20
2007,06,24,13,33,14.30
2007,06,24,13,34,14.40
2007,06,24,13,35,14.50
2007,06,24,13,36,14.60
2007,06,24,13,37,14.60
2007,06,24,13,38,14.60
2007,06,24,13,39,14.60
2007,06,24,13,40,14.60
2007,06,24,13,41,14.60
2007,06,24,13,42,14.70
2007,06,24,13,43,14.80
2007,06,24,13,44,14.90
2007,06,24,13,45,15.00
2007,06,24,13,46,15.00
2007,06,24,13,47,15.00
2007,06,24,13,48,15.00
2007,06,24,13,49,15.00
2007,06,24,13,50,15.00
2007,06,24,13,51,15.00
2007,06,24,13,52,14.90
2007,06,24,13,53,14.80
2007,06,24,13,54,14.80
2007,06,24,13,55,14.70
2007,06,24,13,56,14.70
2007,06,24,13,57,14.60
2007,06,24,13,58,14.60
2007,06,24,13,59,14.60
2007,06,24,14,00,14.60
2007,06,24,14,01,14.60
2007,06,24,14,02,14.60
2007,06,24,14,03,14.60
2007,06,24,14,04,14.70
2007,06,24,14,05,14.70
2007,06,24,14,06,14.70
2007,06,24,14,07,14.60
2007,06,24,14,08,14.60
2007,06,24,14,09,14.50
2007,06,24,14,10,14.40
2007,06,24,14,11,14.30
2007,06,24,14,12,14.30
2007,06,24,14,13,14.20
2007,06,24,14,14,14.10
2007,06,24,14,15,14.00
2007,06,24,14,16,13.80
2007,06,24,14,17,13.70
2007,06,24,14,18,13.60
2007,06,24,14,19,13.50
2007,06,24,14,20,13.50
2007,06,24,14,21,13.50
2007,06,24,14,22,13.40
2007,06,24,14,23,13.40
2007,06,24,14,24,13.30
2007,06,24,14,25,13.30
2007,06,24,14,26,13.20
2007,06,24,14,27,13.10
2007,06,24,14,28,13.00
2007,06,24,14,29,12.90
2007,06,24,14,30,12.90
2007,06,24,14,31,12.90
2007,06,24,14,32,12.80
2007,06,24,14,33,12.80
2007,06,24,14,34,12.80
2007,06,24,14,35,12.80
2007,06,24,14,36,12.80
2007,06,24,14,37,12.80
2007,06,24,14,38,12.70
2007,06,24,14,39,12.70
2007,06,24,14,40,12.70
2007,06,24,14,41,12.70
2007,06,24,14,42,12.70
2007,06,24,14,43,12.70
2007,06,24,14,44,12.70
2007,06,24,14,45,12.60
2007,06,24,14,46,12.60
2007,06,24,14,47,12.60
2007,06,24,14,48,12.50
2007,06,24,14,49,12.50
2007,06,24,14,50,12.50
2007,06,24,14,51,12.60
2007,06,24,14,52,12.60
2007,06,24,14,53,12.60
2007,06,24,14,54,12.70
2007,06,24,14,55,12.70
2007,06,24,14,56,12.70
2007,06,24,14,57,12.70
2007,06,24,14,58,12.70
2007,06,24,14,59,12.70
2007,06,24,15,00,12.80
2007,06,24,15,01,12.80
2007,06,24,15,02,12.90
2007,06,24,15,03,12.90
2007,06,24,15,04,12.90
2007,06,24,15,05,12.90
2007,06,24,15,06,13.00
2007,06,24,15,07,13.00
2007,06,24,15,08,13.10
2007,06,24,15,09,13.10
2007,06,24,15,10,13.10
2007,06,24,15,11,13.10
2007,06,24,15,12,13.00
2007,06,24,15,13,13.00
2007,06,24,15,14,13.00
2007,06,24,15,15,13.10
2007,06,24,15,16,13.00
2007,06,24,15,17,13.00
2007,06,24,15,18,13.00
2007,06,24,15,19,13.10
2007,06,24,15,20,13.10
2007,06,24,15,21,13.10
2007,06,24,15,22,13.20
2007,06,24,15,23,13.20
2007,06,24,15,24,13.20
2007,06,24,15,25,13.30
2007,06,24,15,26,13.40
2007,06,24,15,27,13.40
2007,06,24,15,28,13.40
2007,06,24,15,29,13.40
2007,06,24,15,30,13.50
2007,06,24,15,31,13.50
2007,06,24,15,32,13.50
2007,06,24,15,33,13.40
2007,06,24,15,34,13.30
2007,06,24,15,35,13.20
2007,06,24,15,36,13.10
2007,06,24,15,37,13.10
2007,06,24,15,38,13.10
2007,06,24,15,39,13.10
2007,06,24,15,40,13.20
2007,06,24,15,41,13.30
2007,06,24,15,42,13.30
2007,06,24,15,43,13.40
2007,06,24,15,44,13.50
2007,06,24,15,45,13.50
2007,06,24,15,46,13.60
2007,06,24,15,47,13.70
2007,06,24,15,48,13.70
2007,06,24,15,49,13.70
2007,06,24,15,50,13.70
2007,06,24,15,51,13.80
2007,06,24,15,52,13.80
2007,06,24,15,53,13.90
2007,06,24,15,54,14.00
2007,06,24,15,55,14.10
2007,06,24,15,56,14.10
2007,06,24,15,57,14.10
2007,06,24,15,58,14.20
2007,06,24,15,59,14.00
2007,06,24,16,00,14.00
2007,06,24,16,01,13.90
2007,06,24,16,02,13.90
2007,06,24,16,03,13.90
2007,06,24,16,04,13.90
2007,06,24,16,05,13.90
2007,06,24,16,06,13.80
2007,06,24,16,07,13.80
2007,06,24,16,08,13.80
2007,06,24,16,09,13.80
2007,06,24,16,10,13.80
2007,06,24,16,11,13.70
2007,06,24,16,12,13.60
2007,06,24,16,13,13.50
2007,06,24,16,14,13.30
2007,06,24,16,15,13.30
2007,06,24,16,16,13.30
2007,06,24,16,17,13.20
2007,06,24,16,18,13.20
2007,06,24,16,19,13.20
2007,06,24,16,20,13.20
2007,06,24,16,21,13.20
2007,06,24,16,22,13.10
2007,06,24,16,23,13.10
2007,06,24,16,24,13.00
2007,06,24,16,25,13.00
2007,06,24,16,26,13.00
2007,06,24,16,27,13.00
2007,06,24,16,28,13.00
2007,06,24,16,29,13.00
2007,06,24,16,30,13.10
2007,06,24,16,31,13.10
2007,06,24,16,32,13.20
2007,06,24,16,33,13.20
2007,06,24,16,34,13.20
2007,06,24,16,35,13.20
2007,06,24,16,36,13.30
2007,06,24,16,37,13.30
2007,06,24,16,38,13.40
2007,06,24,16,39,13.40
2007,06,24,16,40,13.40
2007,06,24,16,41,13.40
2007,06,24,16,42,13.40
2007,06,24,16,43,13.40
2007,06,24,16,44,13.40
2007,06,24,16,45,13.40
2007,06,24,16,46,13.40
2007,06,24,16,47,13.40
2007,06,24,16,48,13.40
2007,06,24,16,49,13.50
2007,06,24,16,50,13.40
2007,06,24,16,51,13.40
2007,06,24,16,52,13.40
2007,06,24,16,53,13.40
2007,06,24,16,54,13.40
2007,06,24,16,55,13.40
2007,06,24,16,56,13.50
2007,06,24,16,57,13.60
2007,06,24,16,58,13.70
2007,06,24,16,59,13.80
2007,06,24,17,00,13.90
2007,06,24,17,01,14.00
2007,06,24,17,02,14.00
2007,06,24,17,03,14.00
2007,06,24,17,04,13.90
2007,06,24,17,05,13.90
2007,06,24,17,06,13.90
2007,06,24,17,07,13.90
2007,06,24,17,08,14.00
2007,06,24,17,09,14.00
2007,06,24,17,10,14.10
2007,06,24,17,11,14.10
2007,06,24,17,12,14.00
2007,06,24,17,13,14.10
2007,06,24,17,14,14.10
2007,06,24,17,15,14.20
2007,06,24,17,16,14.30
2007,06,24,17,17,14.40
2007,06,24,17,18,14.50
2007,06,24,17,19,14.50
2007,06,24,17,20,14.60
2007,06,24,17,21,14.60
2007,06,24,17,22,14.70
2007,06,24,17,23,14.70
2007,06,24,17,24,14.80
2007,06,24,17,25,14.80
2007,06,24,17,26,14.80
2007,06,24,17,27,14.90
2007,06,24,17,28,14.90
2007,06,24,17,29,14.90
2007,06,24,17,30,14.90
2007,06,24,17,31,15.00
2007,06,24,17,32,14.90
2007,06,24,17,33,14.80
2007,06,24,17,34,14.60
2007,06,24,17,35,14.50
2007,06,24,17,36,14.40
2007,06,24,17,37,14.30
2007,06,24,17,38,14.30
2007,06,24,17,39,14.20
2007,06,24,17,40,14.20
2007,06,24,17,41,14.10
2007,06,24,17,42,14.00
2007,06,24,17,43,13.90
2007,06,24,17,44,13.80
2007,06,24,17,45,13.70
2007,06,24,17,46,13.60
2007,06,24,17,47,13.60
2007,06,24,17,48,13.50
2007,06,24,17,49,13.50
2007,06,24,17,50,13.50
2007,06,24,17,51,13.40
2007,06,24,17,52,13.30
2007,06,24,17,53,13.30
2007,06,24,17,54,13.30
2007,06,24,17,55,13.30
2007,06,24,17,56,13.20
2007,06,24,17,57,13.20
2007,06,24,17,58,13.20
2007,06,24,17,59,13.20
2007,06,24,18,00,13.20
2007,06,24,18,01,13.20
2007,06,24,18,02,13.20
2007,06,24,18,03,13.20
2007,06,24,18,04,13.20
2007,06,24,18,05,13.20
2007,06,24,18,06,13.20
2007,06,24,18,07,13.20
2007,06,24,18,08,13.20
2007,06,24,18,09,13.20
2007,06,24,18,10,13.20
2007,06,24,18,11,13.20
2007,06,24,18,12,13.30
2007,06,24,18,13,13.30
2007,06,24,18,14,13.20
2007,06,24,18,15,13.20
2007,06,24,18,16,13.20
2007,06,24,18,17,13.20
2007,06,24,18,18,13.20
2007,06,24,18,19,13.20
2007,06,24,18,20,13.20
2007,06,24,18,21,13.20
2007,06,24,18,22,13.20
2007,06,24,18,23,13.20
2007,06,24,18,24,13.20
2007,06,24,18,25,13.20
2007,06,24,18,26,13.20
2007,06,24,18,27,13.20
2007,06,24,18,28,13.20
2007,06,24,18,29,13.20
2007,06,24,18,30,13.20
2007,06,24,18,31,13.20
2007,06,24,18,32,13.10
2007,06,24,18,33,13.10
2007,06,24,18,34,13.00
2007,06,24,18,35,13.00
2007,06,24,18,36,12.90
2007,06,24,18,37,12.90
2007,06,24,18,38,12.90
2007,06,24,18,39,12.90
2007,06,24,18,40,12.80
2007,06,24,18,41,12.80
2007,06,24,18,42,12.80
2007,06,24,18,43,12.80
2007,06,24,18,44,12.80
2007,06,24,18,45,12.80
2007,06,24,18,46,12.80
2007,06,24,18,47,12.70
2007,06,24,18,48,12.70
2007,06,24,18,49,12.70
2007,06,24,18,50,12.70
2007,06,24,18,51,12.70
2007,06,24,18,52,12.70
2007,06,24,18,53,12.70
2007,06,24,18,54,12.70
2007,06,24,18,55,12.60
2007,06,24,18,56,12.60
2007,06,24,18,57,12.60
2007,06,24,18,58,12.60
2007,06,24,18,59,12.50
2007,06,24,19,00,12.50
2007,06,24,19,01,12.40
2007,06,24,19,02,12.40
2007,06,24,19,03,12.30
2007,06,24,19,04,12.30
2007,06,24,19,05,12.30
2007,06,24,19,06,12.20
2007,06,24,19,07,12.20
2007,06,24,19,08,12.10
2007,06,24,19,09,12.10
2007,06,24,19,10,12.10
2007,06,24,19,11,12.10
2007,06,24,19,12,12.10
2007,06,24,19,13,12.10
2007,06,24,19,14,12.10
2007,06,24,19,15,12.10
2007,06,24,19,16,12.10
2007,06,24,19,17,12.10
2007,06,24,19,18,12.20
2007,06,24,19,19,12.20
2007,06,24,19,20,12.20
2007,06,24,19,21,12.20
2007,06,24,19,22,12.30
2007,06,24,19,23,12.30
2007,06,24,19,24,12.30
2007,06,24,19,25,12.30
2007,06,24,19,26,12.30
2007,06,24,19,27,12.30
2007,06,24,19,28,12.30
2007,06,24,19,29,12.30
2007,06,24,19,30,12.30
2007,06,24,19,31,12.30
2007,06,24,19,32,12.20
2007,06,24,19,33,12.20
2007,06,24,19,34,12.20
2007,06,24,19,35,12.10
2007,06,24,19,36,12.10
2007,06,24,19,37,12.00
2007,06,24,19,38,11.90
2007,06,24,19,39,11.90
2007,06,24,19,40,11.90
2007,06,24,19,41,11.80
2007,06,24,19,42,11.80
2007,06,24,19,43,11.80
2007,06,24,19,44,11.70
2007,06,24,19,45,11.70
2007,06,24,19,46,11.60
2007,06,24,19,47,11.60
2007,06,24,19,48,11.60
2007,06,24,19,49,11.60
2007,06,24,19,50,11.50
2007,06,24,19,51,11.50
2007,06,24,19,52,11.50
2007,06,24,19,53,11.50
2007,06,24,19,54,11.50
2007,06,24,19,55,11.40
2007,06,24,19,56,11.40
2007,06,24,19,57,11.40
2007,06,24,19,58,11.40
2007,06,24,19,59,11.40
2007,06,24,20,00,11.30
2007,06,24,20,01,11.30
2007,06,24,20,02,11.30
2007,06,24,20,03,11.30
2007,06,24,20,04,11.30
2007,06,24,20,05,11.30
2007,06,24,20,06,11.30
2007,06,24,20,07,11.30
2007,06,24,20,08,11.30
2007,06,24,20,09,11.30
2007,06,24,20,10,11.20
2007,06,24,20,11,11.20
2007,06,24,20,12,11.10
2007,06,24,20,13,11.10
2007,06,24,20,14,11.00
2007,06,24,20,15,10.90
2007,06,24,20,16,10.80
2007,06,24,20,17,10.70
2007,06,24,20,18,10.60
2007,06,24,20,19,10.50
2007,06,24,20,20,10.50
2007,06,24,20,21,10.40
2007,06,24,20,22,10.30
2007,06,24,20,23,10.30
2007,06,24,20,24,10.30
2007,06,24,20,25,10.20
2007,06,24,20,26,10.20
2007,06,24,20,27,10.20
2007,06,24,20,28,10.20
2007,06,24,20,29,10.20
2007,06,24,20,30,10.20
2007,06,24,20,31,10.20
2007,06,24,20,32,10.20
2007,06,24,20,33,10.20
2007,06,24,20,34,10.20
2007,06,24,20,35,10.20
2007,06,24,20,36,10.20
2007,06,24,20,37,10.20
2007,06,24,20,38,10.20
2007,06,24,20,39,10.20
2007,06,24,20,40,10.20
2007,06,24,20,41,10.20
2007,06,24,20,42,10.20
2007,06,24,20,43,10.20
2007,06,24,20,44,10.20
2007,06,24,20,45,10.20
2007,06,24,20,46,10.20
2007,06,24,20,47,10.20
2007,06,24,20,48,10.20
2007,06,24,20,49,10.20
2007,06,24,20,50,10.20
2007,06,24,20,51,10.10
2007,06,24,20,52,10.10
2007,06,24,20,53,10.10
2007,06,24,20,54,10.10
2007,06,24,20,55,10.10
2007,06,24,20,56,10.10
2007,06,24,20,57,10.00
2007,06,24,20,58,10.00
2007,06,24,20,59,10.00
2007,06,24,21,00,9.90
2007,06,24,21,01,9.90
2007,06,24,21,02,9.90
2007,06,24,21,03,9.90
2007,06,24,21,04,9.90
2007,06,24,21,05,9.90
2007,06,24,21,06,9.90
2007,06,24,21,07,9.90
2007,06,24,21,08,9.80
2007,06,24,21,09,9.80
2007,06,24,21,10,9.80
2007,06,24,21,11,9.80
2007,06,24,21,12,9.80
2007,06,24,21,13,9.80
2007,06,24,21,14,9.80
2007,06,24,21,15,9.70
2007,06,24,21,16,9.70
2007,06,24,21,17,9.70
2007,06,24,21,18,9.70
2007,06,24,21,19,9.70
2007,06,24,21,20,9.70
2007,06,24,21,21,9.70
2007,06,24,21,22,9.60
2007,06,24,21,23,9.60
2007,06,24,21,24,9.60
2007,06,24,21,25,9.60
2007,06,24,21,26,9.60
2007,06,24,21,27,9.60
2007,06,24,21,28,9.60
2007,06,24,21,29,9.60
2007,06,24,21,30,9.50
2007,06,24,21,31,9.50
2007,06,24,21,32,9.50
2007,06,24,21,33,9.50
2007,06,24,21,34,9.40
2007,06,24,21,35,9.40
2007,06,24,21,36,9.40
2007,06,24,21,37,9.40
2007,06,24,21,38,9.40
2007,06,24,21,39,9.40
2007,06,24,21,40,9.40
2007,06,24,21,41,9.40
2007,06,24,21,42,9.30
2007,06,24,21,43,9.30
2007,06,24,21,44,9.30
2007,06,24,21,45,9.30
2007,06,24,21,46,9.20
2007,06,24,21,47,9.20
2007,06,24,21,48,9.20
2007,06,24,21,49,9.20
2007,06,24,21,50,9.20
2007,06,24,21,51,9.10
2007,06,24,21,52,9.10
2007,06,24,21,53,9.10
2007,06,24,21,54,9.10
2007,06,24,21,55,9.10
2007,06,24,21,56,9.10
2007,06,24,21,57,9.00
2007,06,24,21,58,9.00
2007,06,24,21,59,9.00
2007,06,24,22,00,8.90
2007,06,24,22,01,8.90
2007,06,24,22,02,8.90
2007,06,24,22,03,8.90
2007,06,24,22,04,8.80
2007,06,24,22,05,8.80
2007,06,24,22,06,8.70
2007,06,24,22,07,8.70
2007,06,24,22,08,8.60
2007,06,24,22,09,8.60
2007,06,24,22,10,8.60
2007,06,24,22,11,8.50
2007,06,24,22,12,8.40
2007,06,24,22,13,8.40
2007,06,24,22,14,8.40
2007,06,24,22,15,8.40
2007,06,24,22,16,8.30
2007,06,24,22,17,8.30
2007,06,24,22,18,8.30
2007,06,24,22,19,8.30
2007,06,24,22,20,8.20
2007,06,24,22,21,8.20
2007,06,24,22,22,8.20
2007,06,24,22,23,8.20
2007,06,24,22,24,8.10
2007,06,24,22,25,8.10
2007,06,24,22,26,8.10
2007,06,24,22,27,8.10
2007,06,24,22,28,8.00
2007,06,24,22,29,8.00
2007,06,24,22,30,7.90
2007,06,24,22,31,7.90
2007,06,24,22,32,7.90
2007,06,24,22,33,7.80
2007,06,24,22,34,7.80
2007,06,24,22,35,7.80
2007,06,24,22,36,7.80
2007,06,24,22,37,7.70
2007,06,24,22,38,7.70
2007,06,24,22,39,7.70
2007,06,24,22,40,7.70
2007,06,24,22,41,7.60
2007,06,24,22,42,7.60
2007,06,24,22,43,7.60
2007,06,24,22,44,7.60
2007,06,24,22,45,7.60
2007,06,24,22,46,7.50
2007,06,24,22,47,7.50
2007,06,24,22,48,7.50
2007,06,24,22,49,7.50
2007,06,24,22,50,7.40
2007,06,24,22,51,7.40
2007,06,24,22,52,7.40
2007,06,24,22,53,7.40
2007,06,24,22,54,7.30
2007,06,24,22,55,7.30
2007,06,24,22,56,7.30
2007,06,24,22,57,7.20
2007,06,24,22,58,7.20
2007,06,24,22,59,7.20
2007,06,24,23,00,7.20
2007,06,24,23,01,7.20
2007,06,24,23,02,7.20
2007,06,24,23,03,7.20
2007,06,24,23,04,7.20
2007,06,24,23,05,7.20
2007,06,24,23,06,7.20
2007,06,24,23,07,7.20
2007,06,24,23,08,7.10
2007,06,24,23,09,7.10
2007,06,24,23,10,7.10
2007,06,24,23,11,7.10
2007,06,24,23,12,7.10
2007,06,24,23,13,7.10
2007,06,24,23,14,7.10
2007,06,24,23,15,7.10
2007,06,24,23,16,7.10
2007,06,24,23,17,7.10
2007,06,24,23,18,7.10
2007,06,24,23,19,7.10
2007,06,24,23,20,7.10
2007,06,24,23,21,7.10
2007,06,24,23,22,7.00
2007,06,24,23,23,7.00
2007,06,24,23,24,7.00
2007,06,24,23,25,7.00
2007,06,24,23,26,7.00
2007,06,24,23,27,7.00
2007,06,24,23,28,7.00
2007,06,24,23,29,7.00
2007,06,24,23,30,7.10
2007,06,24,23,31,7.10
2007,06,24,23,32,7.10
2007,06,24,23,33,7.10
2007,06,24,23,34,7.10
2007,06,24,23,35,7.00
2007,06,24,23,36,7.10
2007,06,24,23,37,7.10
2007,06,24,23,38,7.10
2007,06,24,23,39,7.10
2007,06,24,23,40,7.10
2007,06,24,23,41,7.10
2007,06,24,23,42,7.20
2007,06,24,23,43,7.20